Regional Weather Roundup
Issued by NWS

Home | Current Version | Previous Version | Graphics & Text | Print | Product List | Glossary On
Versions: 1 2 3 4 5 6 7 8 9 10 11 12 13 14 15 16 17 18 19 20 21 22 23 24 25 26 27 28 29 30 31 32 33 34 35 36 37 38 39 40 41 42 43 44 45 46 47 48 49 50
000
ASUS45 KABQ 171401
RWRNM
WEATHER ROUNDUP FOR NEW MEXICO
NATIONAL WEATHER SERVICE ALBUQUERQUE NM
800 AM MDT WED SEP 17 2014

NOTE: "FAIR" MEANS FEW OR NO CLOUDS BELOW 12,000 FEET AGL WITH NO
       SIGNIFICANT WEATHER OR OBSTRUCTIONS TO VISION.

      THIS PRODUCT IS RELEASED AS TWO VERSIONS.  ONE VERSION NEAR
      THE TOP OF THE HOUR CONTAINING PRELIMINARY DATA FROM ALBUQUERQUE
      AND OTHER STATIONS.  A FINAL VERSION WITH ADDITIONAL DATA IS
      ISSUED ABOUT 10 MINUTES AFTER THE HOUR.

NMZ501-503-504-510>518-171500-
NORTHWEST PLATEAU/NORTHCENTRAL MOUNTAINS

CITY           SKY/WX    TMP DP  RH WIND       PRES   REMARKS
FARMINGTON     SUNNY     62  49  62 E7        30.17R
LOS ALAMOS     CLOUDY    55  53  92 CALM      30.28R
SANTA FE       CLOUDY    57  51  80 CALM      30.22S
ANGEL FIRE     FAIR      44  41  90 CALM      30.35S

$$
NMZ402-403-502-505>509-171500-
WESTCENTRAL MOUNTAINS/SOUTHWEST MOUNTAINS

CITY           SKY/WX    TMP DP  RH WIND       PRES   REMARKS
GALLUP         CLOUDY    58  51  78 CALM      30.23R
GRANTS         LGT RAIN  57  55  94 CALM      30.26R
SILVER CITY    LGT RAIN  63  59  88 NE5       30.17R

$$
NMZ407-409-411-412-171500-
SOUTHERN DESERTS

CITY           SKY/WX    TMP DP  RH WIND       PRES   REMARKS
DEMING         CLOUDY    65  63  93 NE10      30.09R
LAS CRUCES     CLOUDY    65  63  93 N5        30.12R
HOLLOMAN AFB   DRIZZLE   64  64 100 N3        30.11R
ALAMOGORDO     CLOUDY    64  64 100 NW8       30.11S
T OR C         CLOUDY    62  61  96 N3        30.14R

$$
NMZ519>523-171500-
CENTRAL VALLEYS/CENTRAL HIGHLANDS

CITY           SKY/WX    TMP DP  RH WIND       PRES   REMARKS
ALBUQUERQUE    CLOUDY    63  57  81 E3        30.18S
DOUBLE EAGLE   DRIZZLE   59  57  94 W6        30.21R
CLINES CORNERS LGT RAIN  55  53  93 W6        30.25R
BELEN          RAIN      60  60  99 CALM      30.18S
SOCORRO        RAIN      62  61  97 N7        30.16R

$$
NMZ524>526-539-540-171500-
SOUTHCENTRAL MOUNTAINS

CITY           SKY/WX    TMP DP  RH WIND       PRES   REMARKS
RUIDOSO        NOT AVBL

$$
NMZ527>531-171500-
NORTHEAST HIGHLANDS/NORTHEAST PLAINS

CITY           SKY/WX    TMP DP  RH WIND       PRES   REMARKS
LAS VEGAS      CLOUDY    55  49  80 CALM      30.24R
RATON          PTSUNNY   52  50  93 E3        30.19R
CLAYTON        PTSUNNY   61  55  81 SW7       30.11R

$$
NMZ532>537-171500-
EASTCENTRAL PLAINS

CITY           SKY/WX    TMP DP  RH WIND       PRES   REMARKS
TUCUMCARI      CLOUDY    66  61  84 W5        30.09R
CANNON AFB     LGT RAIN  64 N/A N/A SW6       30.14R
CLOVIS AIRPORT   N/A     64  61  88 W6        30.16R

$$
NMZ028-029-538-171500-
SOUTHEAST PLAINS

CITY           SKY/WX    TMP DP  RH WIND       PRES   REMARKS
ROSWELL        CLOUDY    67  65  93 CALM      30.10R FOG
CARLSBAD       PTSUNNY   68  32  26 NW3       30.07R HAZE
HOBBS          PTSUNNY   64  64 100 CALM      30.11R


$$



USA.gov is the U.S. government's official web portal to all federal, state and local government web resources and services.